This is the latest recevied weather packets stored in our database for station/object DW9280. If no packets are shown the sender has not sent any weather packets the latest 10 day(s).
| Time | Temp. | Humidity | Pressure | Rain* | Wind** | Luminosity | Snow |
|---|---|---|---|---|---|---|---|
| 1778173623 | 15° C | 62% | 1016.4 hPa | 0 mm | - | 49 W/m² | - |
| 1778173325 | 15° C | 62% | 1016.4 hPa | 0 mm | - | 47 W/m² | - |
| 1778173022 | 15° C | 63% | 1016.4 hPa | 0 mm | - | 47 W/m² | - |
| 1778172722 | 15° C | 62% | 1016.5 hPa | 0 mm | - | 47 W/m² | - |
| 1778172424 | 15° C | 62% | 1016.4 hPa | 0 mm | - | 47 W/m² | - |
| 1778172123 | 15° C | 63% | 1016.4 hPa | 0 mm | - | 49 W/m² | - |
| 1778171823 | 15° C | 63% | 1016.4 hPa | 0 mm | - | 49 W/m² | - |
| 1778171522 | 15° C | 62% | 1016.4 hPa | 0 mm | - | 47 W/m² | - |
| 1778171224 | 15° C | 62% | 1016.4 hPa | 0 mm | - | 49 W/m² | - |
| 1778170924 | 15.56° C | 63% | 1016.4 hPa | 0 mm | - | 56 W/m² | - |
| 1778170622 | 15.56° C | 66% | 1016.3 hPa | 0 mm | - | 63 W/m² | - |
| 1778170324 | 15.56° C | 64% | 1016.3 hPa | 0 mm | - | 72 W/m² | - |
| 1778170022 | 15.56° C | 64% | 1016.3 hPa | 0 mm | - | 88 W/m² | - |
| 1778169721 | 15.56° C | 65% | 1016.3 hPa | 0 mm | - | 114 W/m² | - |
| 1778169545 | 15.56° C | 64% | 1016.3 hPa | 0 mm | - | 135 W/m² | - |
| 1778169125 | 15.56° C | 64% | 1016.3 hPa | 0 mm | - | 169 W/m² | - |
| 1778168824 | 15.56° C | 64% | 1016.3 hPa | 0 mm | - | 510 W/m² | - |
| 1778168522 | 16.11° C | 64% | 1016.3 hPa | 0 mm | - | 190 W/m² | - |
| 1778168224 | 16.11° C | 63% | 1016.3 hPa | 0 mm | - | 279 W/m² | - |
| 1778167925 | 16.11° C | 60% | 1016.3 hPa | 0 mm | - | 197 W/m² | - |
| 1778167622 | 16.67° C | 59% | 1016.2 hPa | 0 mm | - | 213 W/m² | - |
| 1778167334 | 16.67° C | 62% | 1016.3 hPa | 0 mm | - | 650 W/m² | - |
| 1778167023 | 16.11° C | 60% | 1016.2 hPa | 0 mm | - | 663 W/m² | - |
| 1778166847 | 16.67° C | 61% | 1016.2 hPa | 0 mm | - | 229 W/m² | - |
| 1778166423 | 16.67° C | 61% | 1016.2 hPa | 0 mm | - | 643 W/m² | - |
* Rain latest hour (hover to see other rain measurements)
** Current wind speed in m/s (hover to see current wind gust speed)